Time,TemperatureF,DewpointF,PressureIn,WindDirection,WindDirectionDegrees,WindSpeedMPH,WindSpeedGustMPH,Humidity,HourlyPrecipIn,Conditions,Clouds,dailyrainin,SoftwareType,DateUTC
2013-09-02 00:01:00,64.5,64.0,30.01,South,180,0.0,3.0,100,0.00,,,0.00,Rainwise IP-100,2013-09-02 04:01:00,
2013-09-02 00:06:00,64.4,64.0,30.01,ESE,112,2.6,4.0,100,0.00,,,0.00,Rainwise IP-100,2013-09-02 04:06:00,
2013-09-02 00:11:00,64.4,64.0,30.02,SSE,157,1.2,3.0,100,0.00,,,0.00,Rainwise IP-100,2013-09-02 04:11:00,
2013-09-02 00:16:00,64.4,64.0,30.02,ESE,112,2.3,4.0,100,0.00,,,0.00,Rainwise IP-100,2013-09-02 04:16:00,
2013-09-02 00:21:00,64.4,64.0,30.02,ESE,112,3.0,4.0,100,0.00,,,0.00,Rainwise IP-100,2013-09-02 04:21:00,
2013-09-02 00:26:00,64.4,64.0,30.02,SE,135,0.0,4.0,100,0.00,,,0.00,Rainwise IP-100,2013-09-02 04:26:00,
2013-09-02 00:31:00,64.4,64.0,30.02,ESE,112,0.0,4.0,100,0.00,,,0.00,Rainwise IP-100,2013-09-02 04:31:00,
2013-09-02 00:36:00,64.5,64.0,30.02,SSE,157,2.1,3.0,100,0.00,,,0.00,Rainwise IP-100,2013-09-02 04:36:00,
2013-09-02 00:41:00,64.5,64.0,30.02,ESE,112,2.3,3.0,100,0.00,,,0.00,Rainwise IP-100,2013-09-02 04:41:00,
2013-09-02 00:46:00,64.5,64.0,30.02,ESE,112,2.3,5.0,100,0.00,,,0.00,Rainwise IP-100,2013-09-02 04:46:00,
2013-09-02 00:51:00,64.5,64.0,30.01,SSE,157,1.4,4.0,100,0.00,,,0.00,Rainwise IP-100,2013-09-02 04:51:00,
2013-09-02 00:56:00,64.6,64.0,30.01,ESE,112,1.6,4.0,100,0.00,,,0.00,Rainwise IP-100,2013-09-02 04:56:00,
2013-09-02 01:01:00,64.7,64.0,30.01,ESE,112,2.3,4.0,100,0.00,,,0.00,Rainwise IP-100,2013-09-02 05:01:00,
2013-09-02 01:06:00,64.7,64.0,30.01,ESE,112,3.0,5.0,100,0.00,,,0.00,Rainwise IP-100,2013-09-02 05:06:00,
2013-09-02 01:11:00,64.8,64.0,30.01,SE,135,1.9,4.0,100,0.00,,,0.00,Rainwise IP-100,2013-09-02 05:11:00,
2013-09-02 01:16:00,64.9,65.0,30.01,North,360,1.9,5.0,100,0.00,,,0.00,Rainwise IP-100,2013-09-02 05:16:00,
2013-09-02 01:21:00,64.9,65.0,30.01,ESE,112,3.3,5.0,100,0.00,,,0.00,Rainwise IP-100,2013-09-02 05:21:00,
2013-09-02 01:26:00,64.9,65.0,30.01,SE,135,2.3,9.0,100,0.00,,,0.00,Rainwise IP-100,2013-09-02 05:26:00,
2013-09-02 01:31:00,65.0,65.0,30.01,SE,135,3.3,8.0,100,0.00,,,0.00,Rainwise IP-100,2013-09-02 05:31:00,
2013-09-02 01:36:00,65.0,65.0,30.01,ESE,112,5.8,8.0,100,0.00,,,0.00,Rainwise IP-100,2013-09-02 05:36:00,
2013-09-02 01:41:00,65.0,65.0,30.01,ESE,112,5.4,9.0,100,0.00,,,0.00,Rainwise IP-100,2013-09-02 05:41:00,
2013-09-02 01:46:00,65.0,65.0,30.01,ESE,112,4.2,8.0,100,0.00,,,0.00,Rainwise IP-100,2013-09-02 05:46:00,
2013-09-02 01:51:00,65.0,65.0,30.01,ESE,112,4.4,7.0,100,0.00,,,0.00,Rainwise IP-100,2013-09-02 05:51:00,
2013-09-02 01:56:00,65.1,65.0,30.00,SSE,157,4.2,7.0,100,0.00,,,0.00,Rainwise IP-100,2013-09-02 05:56:00,
2013-09-02 02:01:00,65.0,65.0,30.00,ESE,112,2.1,6.0,100,0.00,,,0.00,Rainwise IP-100,2013-09-02 06:01:00,
2013-09-02 02:06:00,64.9,65.0,30.00,ESE,112,4.4,6.0,100,0.00,,,0.00,Rainwise IP-100,2013-09-02 06:06:00,
2013-09-02 02:11:00,64.9,65.0,30.00,ESE,112,3.0,7.0,100,0.00,,,0.00,Rainwise IP-100,2013-09-02 06:11:00,
2013-09-02 02:16:00,64.9,65.0,30.01,ENE,67,1.6,8.0,100,0.00,,,0.00,Rainwise IP-100,2013-09-02 06:16:00,
2013-09-02 02:21:00,64.9,65.0,30.01,ENE,67,3.7,9.0,100,0.00,,,0.00,Rainwise IP-100,2013-09-02 06:21:00,
2013-09-02 02:26:00,64.9,65.0,30.00,ESE,112,6.8,8.0,100,0.00,,,0.00,Rainwise IP-100,2013-09-02 06:26:00,
2013-09-02 02:31:00,64.9,65.0,30.00,SE,135,3.0,7.0,100,0.00,,,0.00,Rainwise IP-100,2013-09-02 06:31:00,
2013-09-02 02:36:00,64.9,65.0,30.00,ESE,112,2.8,7.0,100,0.00,,,0.00,Rainwise IP-100,2013-09-02 06:36:00,
2013-09-02 02:41:00,64.9,65.0,30.00,East,90,7.0,7.0,100,0.00,,,0.00,Rainwise IP-100,2013-09-02 06:41:00,
2013-09-02 02:46:00,64.9,65.0,29.99,ESE,112,2.6,7.0,100,0.00,,,0.00,Rainwise IP-100,2013-09-02 06:46:00,
2013-09-02 02:51:00,64.8,64.0,30.00,ESE,112,4.4,6.0,100,0.00,,,0.00,Rainwise IP-100,2013-09-02 06:51:00,
2013-09-02 02:56:00,64.8,64.0,30.00,SSE,157,3.5,10.0,100,0.00,,,0.00,Rainwise IP-100,2013-09-02 06:56:00,
2013-09-02 03:01:00,64.9,65.0,30.00,NNW,337,3.5,10.0,100,0.00,,,0.00,Rainwise IP-100,2013-09-02 07:01:00,
2013-09-02 03:06:00,64.8,64.0,30.01,ESE,112,4.0,10.0,100,0.00,,,0.00,Rainwise IP-100,2013-09-02 07:06:00,
2013-09-02 03:11:00,64.8,64.0,30.01,ESE,112,10.5,10.5,100,0.00,,,0.00,Rainwise IP-100,2013-09-02 07:11:00,
2013-09-02 03:16:00,64.8,64.0,30.01,ESE,112,4.2,13.0,100,0.00,,,0.00,Rainwise IP-100,2013-09-02 07:16:00,
2013-09-02 03:21:00,64.6,64.0,30.01,ESE,112,3.0,11.0,100,0.00,,,0.00,Rainwise IP-100,2013-09-02 07:21:00,
2013-09-02 03:26:00,64.5,64.0,30.01,ESE,112,8.2,13.0,100,0.00,,,0.00,Rainwise IP-100,2013-09-02 07:26:00,
2013-09-02 03:31:00,64.4,64.0,30.01,ESE,112,4.0,12.0,100,0.00,,,0.00,Rainwise IP-100,2013-09-02 07:31:00,
2013-09-02 03:36:00,64.3,64.0,30.01,ESE,112,8.2,13.0,100,0.00,,,0.00,Rainwise IP-100,2013-09-02 07:36:00,
2013-09-02 03:41:00,64.1,64.0,30.01,SSE,157,3.7,12.0,100,0.00,,,0.00,Rainwise IP-100,2013-09-02 07:41:00,
2013-09-02 03:46:00,64.0,64.0,30.00,ESE,112,3.5,9.0,100,0.00,,,0.00,Rainwise IP-100,2013-09-02 07:46:00,
2013-09-02 03:51:00,63.9,64.0,30.00,ESE,112,4.4,14.0,100,0.00,,,0.00,Rainwise IP-100,2013-09-02 07:51:00,
2013-09-02 03:56:00,63.6,63.0,29.99,ESE,112,7.5,13.0,100,0.06,,,0.01,Rainwise IP-100,2013-09-02 07:56:00,
2013-09-02 04:01:00,63.5,63.0,30.00,SSE,157,3.3,11.0,100,0.12,,,0.02,Rainwise IP-100,2013-09-02 08:01:00,
2013-09-02 04:06:00,63.3,63.0,30.01,East,90,4.4,13.0,100,0.12,,,0.03,Rainwise IP-100,2013-09-02 08:06:00,
2013-09-02 04:11:00,63.2,63.0,30.01,East,90,1.9,8.0,100,0.06,,,0.03,Rainwise IP-100,2013-09-02 08:11:00,
2013-09-02 04:16:00,63.1,63.0,30.01,East,90,3.5,10.0,100,0.06,,,0.04,Rainwise IP-100,2013-09-02 08:16:00,
2013-09-02 04:21:00,62.9,63.0,30.01,ESE,112,3.3,10.0,100,0.06,,,0.04,Rainwise IP-100,2013-09-02 08:21:00,
2013-09-02 04:26:00,62.8,62.0,30.01,ESE,112,3.3,14.0,100,0.00,,,0.04,Rainwise IP-100,2013-09-02 08:26:00,
2013-09-02 04:31:00,62.7,62.0,30.01,ESE,112,3.0,12.0,100,0.00,,,0.04,Rainwise IP-100,2013-09-02 08:31:00,
2013-09-02 04:36:00,62.6,62.0,30.01,SE,135,2.3,13.0,100,0.00,,,0.04,Rainwise IP-100,2013-09-02 08:36:00,
2013-09-02 04:41:00,62.6,62.0,30.01,NNW,337,0.0,13.0,100,0.00,,,0.04,Rainwise IP-100,2013-09-02 08:41:00,
2013-09-02 04:46:00,62.6,62.0,30.01,SE,135,2.6,7.0,100,0.00,,,0.04,Rainwise IP-100,2013-09-02 08:46:00,
2013-09-02 04:51:00,62.6,62.0,30.01,ESE,112,2.8,5.0,100,0.00,,,0.04,Rainwise IP-100,2013-09-02 08:51:00,
2013-09-02 04:56:00,62.6,62.0,30.01,ESE,112,4.0,6.0,100,0.00,,,0.04,Rainwise IP-100,2013-09-02 08:56:00,
2013-09-02 05:01:00,62.5,62.0,30.01,ESE,112,3.3,11.0,100,0.00,,,0.04,Rainwise IP-100,2013-09-02 09:01:00,
2013-09-02 05:06:00,62.4,62.0,30.01,ESE,112,4.7,9.0,100,0.06,,,0.05,Rainwise IP-100,2013-09-02 09:06:00,
2013-09-02 05:11:00,62.4,62.0,30.01,ESE,112,5.4,11.0,100,0.06,,,0.05,Rainwise IP-100,2013-09-02 09:11:00,
2013-09-02 05:16:00,62.4,62.0,30.01,ESE,112,3.7,9.0,100,0.00,,,0.06,Rainwise IP-100,2013-09-02 09:16:00,
2013-09-02 05:21:00,62.3,62.0,30.01,South,180,2.3,8.0,100,0.06,,,0.06,Rainwise IP-100,2013-09-02 09:21:00,
2013-09-02 05:26:00,62.2,62.0,30.01,ESE,112,3.7,11.0,100,0.06,,,0.06,Rainwise IP-100,2013-09-02 09:26:00,
2013-09-02 05:31:00,62.2,62.0,30.01,East,90,5.4,10.0,100,0.06,,,0.07,Rainwise IP-100,2013-09-02 09:31:00,
2013-09-02 05:36:00,62.0,62.0,30.01,SSE,157,3.3,14.0,100,0.06,,,0.07,Rainwise IP-100,2013-09-02 09:36:00,
2013-09-02 05:41:00,61.9,62.0,30.01,ESE,112,6.1,14.0,100,0.00,,,0.07,Rainwise IP-100,2013-09-02 09:41:00,
2013-09-02 05:46:00,61.7,61.0,30.02,ESE,112,5.1,14.0,100,0.00,,,0.07,Rainwise IP-100,2013-09-02 09:46:00,
2013-09-02 05:51:00,61.7,61.0,30.01,SSW,202,1.2,11.0,100,0.00,,,0.07,Rainwise IP-100,2013-09-02 09:51:00,
2013-09-02 05:56:00,61.6,61.0,30.02,ESE,112,5.6,14.0,100,0.00,,,0.07,Rainwise IP-100,2013-09-02 09:56:00,
2013-09-02 06:01:00,61.5,61.0,30.02,ENE,67,7.0,11.0,100,0.00,,,0.07,Rainwise IP-100,2013-09-02 10:01:00,
2013-09-02 06:06:00,61.3,61.0,30.02,ESE,112,7.5,17.0,100,0.00,,,0.07,Rainwise IP-100,2013-09-02 10:06:00,
2013-09-02 06:11:00,61.1,61.0,30.01,East,90,5.8,8.0,100,0.06,,,0.08,Rainwise IP-100,2013-09-02 10:11:00,
2013-09-02 06:16:00,61.0,61.0,30.01,ESE,112,6.8,8.0,100,0.06,,,0.08,Rainwise IP-100,2013-09-02 10:16:00,
2013-09-02 06:21:00,61.0,61.0,30.02,ESE,112,3.7,7.0,100,0.00,,,0.08,Rainwise IP-100,2013-09-02 10:21:00,
2013-09-02 06:26:00,61.1,61.0,30.02,ESE,112,3.7,7.0,100,0.00,,,0.08,Rainwise IP-100,2013-09-02 10:26:00,
2013-09-02 06:31:00,61.1,61.0,30.02,SSE,157,0.0,7.0,100,0.06,,,0.09,Rainwise IP-100,2013-09-02 10:31:00,
2013-09-02 06:36:00,61.1,61.0,30.02,SSE,157,2.3,5.0,100,0.12,,,0.10,Rainwise IP-100,2013-09-02 10:36:00,
2013-09-02 06:41:00,60.9,61.0,30.03,East,90,10.5,11.0,100,0.12,,,0.12,Rainwise IP-100,2013-09-02 10:41:00,
2013-09-02 06:46:00,60.8,60.0,30.02,ESE,112,6.5,11.0,100,0.18,,,0.13,Rainwise IP-100,2013-09-02 10:46:00,
2013-09-02 06:51:00,60.7,60.0,30.03,ESE,112,4.2,10.0,100,0.24,,,0.16,Rainwise IP-100,2013-09-02 10:51:00,
2013-09-02 06:56:00,60.6,60.0,30.03,ESE,112,5.6,14.0,100,0.30,,,0.19,Rainwise IP-100,2013-09-02 10:56:00,
2013-09-02 07:01:00,60.5,60.0,30.03,East,90,5.4,11.0,100,0.84,,,0.30,Rainwise IP-100,2013-09-02 11:01:00,
2013-09-02 07:06:00,60.5,60.0,30.02,ESE,112,6.5,12.0,100,0.84,,,0.33,Rainwise IP-100,2013-09-02 11:06:00,
2013-09-02 07:11:00,60.4,60.0,30.03,ESE,112,4.4,12.0,100,0.30,,,0.35,Rainwise IP-100,2013-09-02 11:11:00,
2013-09-02 07:16:00,60.4,60.0,30.02,ENE,67,1.4,12.0,100,0.30,,,0.37,Rainwise IP-100,2013-09-02 11:16:00,
2013-09-02 07:21:00,60.3,60.0,30.02,East,90,11.9,14.0,100,0.48,,,0.43,Rainwise IP-100,2013-09-02 11:21:00,
2013-09-02 07:26:00,60.2,60.0,30.03,ENE,67,11.2,15.0,100,0.48,,,0.46,Rainwise IP-100,2013-09-02 11:26:00,
2013-09-02 07:31:00,60.1,60.0,30.03,SSE,157,4.2,12.0,100,0.48,,,0.51,Rainwise IP-100,2013-09-02 11:31:00,
2013-09-02 07:36:00,60.0,60.0,30.02,ESE,112,6.1,10.0,100,0.42,,,0.52,Rainwise IP-100,2013-09-02 11:36:00,
2013-09-02 07:41:00,60.0,60.0,30.01,ESE,112,3.0,15.0,100,0.12,,,0.52,Rainwise IP-100,2013-09-02 11:41:00,
2013-09-02 07:46:00,60.0,60.0,30.02,East,90,3.3,11.0,100,0.12,,,0.55,Rainwise IP-100,2013-09-02 11:46:00,
2013-09-02 07:51:00,60.0,60.0,30.02,ESE,112,4.7,10.0,100,0.24,,,0.57,Rainwise IP-100,2013-09-02 11:51:00,
2013-09-02 07:56:00,60.0,60.0,30.01,ESE,112,4.9,10.0,100,0.30,,,0.60,Rainwise IP-100,2013-09-02 11:56:00,
2013-09-02 08:01:00,60.0,60.0,30.02,ESE,112,3.0,7.0,100,0.30,,,0.62,Rainwise IP-100,2013-09-02 12:01:00,
2013-09-02 08:06:00,60.0,60.0,30.01,ESE,112,2.1,6.0,100,0.24,,,0.63,Rainwise IP-100,2013-09-02 12:06:00,
2013-09-02 08:11:00,60.1,60.0,30.01,ESE,112,3.5,6.0,100,0.24,,,0.65,Rainwise IP-100,2013-09-02 12:11:00,
2013-09-02 08:16:00,60.2,60.0,30.01,ESE,112,3.3,7.0,100,0.18,,,0.66,Rainwise IP-100,2013-09-02 12:16:00,
2013-09-02 08:21:00,60.3,60.0,30.02,SE,135,3.5,11.0,100,0.06,,,0.66,Rainwise IP-100,2013-09-02 12:21:00,
2013-09-02 08:26:00,60.3,60.0,30.01,East,90,6.1,9.0,100,0.00,,,0.66,Rainwise IP-100,2013-09-02 12:26:00,
2013-09-02 08:31:00,60.3,60.0,30.02,ESE,112,3.3,8.0,100,0.00,,,0.66,Rainwise IP-100,2013-09-02 12:31:00,
2013-09-02 08:36:00,60.3,60.0,30.02,SE,135,6.8,7.0,100,0.00,,,0.66,Rainwise IP-100,2013-09-02 12:36:00,
2013-09-02 08:41:00,60.3,60.0,30.01,ESE,112,3.7,7.0,100,0.00,,,0.66,Rainwise IP-100,2013-09-02 12:41:00,
2013-09-02 08:46:00,60.3,60.0,30.02,ESE,112,3.7,9.0,100,0.00,,,0.66,Rainwise IP-100,2013-09-02 12:46:00,
2013-09-02 08:51:00,60.3,60.0,30.01,ESE,112,3.5,8.0,100,0.00,,,0.66,Rainwise IP-100,2013-09-02 12:51:00,
2013-09-02 08:56:00,60.4,60.0,30.01,ESE,112,3.3,9.0,100,0.00,,,0.66,Rainwise IP-100,2013-09-02 12:56:00,
2013-09-02 09:01:00,60.4,60.0,30.01,ESE,112,5.8,6.0,100,0.00,,,0.66,Rainwise IP-100,2013-09-02 13:01:00,
2013-09-02 09:06:00,60.5,60.0,30.01,ESE,112,5.6,11.0,100,0.00,,,0.66,Rainwise IP-100,2013-09-02 13:06:00,
2013-09-02 09:11:00,60.4,60.0,30.01,ESE,112,2.1,9.0,100,0.00,,,0.66,Rainwise IP-100,2013-09-02 13:11:00,
2013-09-02 09:16:00,60.5,60.0,30.01,East,90,4.2,7.0,100,0.00,,,0.66,Rainwise IP-100,2013-09-02 13:16:00,
2013-09-02 09:21:00,60.6,60.0,30.01,East,90,4.2,9.0,100,0.00,,,0.66,Rainwise IP-100,2013-09-02 13:21:00,
2013-09-02 09:26:00,60.7,60.0,30.01,East,90,5.1,8.0,100,0.00,,,0.66,Rainwise IP-100,2013-09-02 13:26:00,
2013-09-02 09:31:00,60.7,60.0,30.01,SE,135,2.6,13.0,100,0.00,,,0.66,Rainwise IP-100,2013-09-02 13:31:00,
2013-09-02 09:36:00,60.7,60.0,30.01,ESE,112,4.4,13.0,100,0.00,,,0.66,Rainwise IP-100,2013-09-02 13:36:00,
2013-09-02 09:41:00,60.7,60.0,30.00,SSE,157,5.6,9.0,100,0.00,,,0.66,Rainwise IP-100,2013-09-02 13:41:00,
2013-09-02 09:46:00,60.7,60.0,29.99,ESE,112,7.2,18.0,100,0.00,,,0.66,Rainwise IP-100,2013-09-02 13:46:00,
2013-09-02 09:51:00,60.8,60.0,30.00,ESE,112,7.2,14.0,100,0.00,,,0.66,Rainwise IP-100,2013-09-02 13:51:00,
2013-09-02 09:56:00,60.9,61.0,30.00,ESE,112,6.5,15.0,100,0.00,,,0.66,Rainwise IP-100,2013-09-02 13:56:00,
2013-09-02 10:01:00,61.0,61.0,29.99,East,90,4.2,10.0,100,0.00,,,0.66,Rainwise IP-100,2013-09-02 14:01:00,
2013-09-02 10:06:00,61.0,61.0,30.00,ESE,112,5.8,7.0,100,0.00,,,0.66,Rainwise IP-100,2013-09-02 14:06:00,
2013-09-02 10:11:00,61.2,61.0,29.99,ESE,112,3.0,10.0,100,0.00,,,0.66,Rainwise IP-100,2013-09-02 14:11:00,
2013-09-02 10:16:00,61.2,61.0,29.99,ESE,112,9.3,11.0,100,0.00,,,0.66,Rainwise IP-100,2013-09-02 14:16:00,
2013-09-02 10:21:00,61.3,61.0,29.99,SE,135,3.3,11.0,100,0.00,,,0.66,Rainwise IP-100,2013-09-02 14:21:00,
2013-09-02 10:26:00,61.5,61.0,29.99,ESE,112,2.8,11.0,100,0.00,,,0.66,Rainwise IP-100,2013-09-02 14:26:00,
2013-09-02 10:31:00,61.4,61.0,29.99,ESE,112,8.9,11.0,100,0.00,,,0.66,Rainwise IP-100,2013-09-02 14:31:00,
2013-09-02 10:36:00,61.5,61.0,29.99,ESE,112,2.6,14.0,100,0.00,,,0.66,Rainwise IP-100,2013-09-02 14:36:00,
2013-09-02 10:41:00,61.6,61.0,29.99,ESE,112,5.1,7.0,100,0.00,,,0.67,Rainwise IP-100,2013-09-02 14:41:00,
2013-09-02 10:46:00,61.7,61.0,29.99,ESE,112,4.4,11.0,100,0.06,,,0.67,Rainwise IP-100,2013-09-02 14:46:00,
2013-09-02 10:51:00,61.7,61.0,29.99,ESE,112,4.2,12.0,100,0.06,,,0.67,Rainwise IP-100,2013-09-02 14:51:00,
2013-09-02 10:56:00,61.7,61.0,29.98,ESE,112,3.5,11.0,100,0.00,,,0.67,Rainwise IP-100,2013-09-02 14:56:00,
2013-09-02 11:01:00,61.7,61.0,29.99,ESE,112,4.7,7.0,100,0.00,,,0.67,Rainwise IP-100,2013-09-02 15:01:00,
2013-09-02 11:06:00,61.7,61.0,29.99,ESE,112,6.3,14.0,100,0.00,,,0.67,Rainwise IP-100,2013-09-02 15:06:00,
2013-09-02 11:11:00,61.7,61.0,29.99,East,90,2.1,10.0,100,0.00,,,0.67,Rainwise IP-100,2013-09-02 15:11:00,
2013-09-02 11:16:00,61.7,61.0,29.98,ESE,112,7.2,11.0,100,0.00,,,0.67,Rainwise IP-100,2013-09-02 15:16:00,
2013-09-02 11:21:00,61.6,61.0,29.99,ESE,112,3.0,10.0,100,0.00,,,0.67,Rainwise IP-100,2013-09-02 15:21:00,
2013-09-02 11:26:00,61.6,61.0,29.98,ESE,112,7.0,8.0,100,0.00,,,0.67,Rainwise IP-100,2013-09-02 15:26:00,
2013-09-02 11:31:00,61.6,61.0,29.98,ESE,112,5.6,10.0,100,0.00,,,0.67,Rainwise IP-100,2013-09-02 15:31:00,
2013-09-02 11:36:00,61.6,61.0,29.98,East,90,5.4,12.0,100,0.00,,,0.67,Rainwise IP-100,2013-09-02 15:36:00,
2013-09-02 11:41:00,61.6,61.0,29.97,ESE,112,5.8,11.0,100,0.06,,,0.68,Rainwise IP-100,2013-09-02 15:41:00,
2013-09-02 11:46:00,61.6,61.0,29.98,SE,135,3.7,11.0,100,0.06,,,0.69,Rainwise IP-100,2013-09-02 15:46:00,
2013-09-02 11:51:00,61.6,61.0,29.98,NNW,337,1.6,8.0,100,0.06,,,0.69,Rainwise IP-100,2013-09-02 15:51:00,
2013-09-02 11:56:00,61.6,61.0,29.98,ESE,112,3.5,6.0,100,0.36,,,0.76,Rainwise IP-100,2013-09-02 15:56:00,
2013-09-02 12:01:00,61.5,61.0,29.97,ESE,112,4.0,8.0,100,0.84,,,0.83,Rainwise IP-100,2013-09-02 16:01:00,
2013-09-02 12:06:00,61.5,61.0,29.97,ESE,112,4.0,10.0,100,0.72,,,0.86,Rainwise IP-100,2013-09-02 16:06:00,
2013-09-02 12:11:00,61.5,61.0,29.98,ESE,112,2.6,13.0,100,0.30,,,0.88,Rainwise IP-100,2013-09-02 16:11:00,
2013-09-02 12:16:00,61.6,61.0,29.97,ESE,112,4.7,9.0,100,0.12,,,0.88,Rainwise IP-100,2013-09-02 16:16:00,
2013-09-02 12:21:00,61.6,61.0,29.98,SSE,157,4.9,11.0,100,0.00,,,0.89,Rainwise IP-100,2013-09-02 16:21:00,
2013-09-02 12:26:00,61.6,61.0,29.97,East,90,4.9,11.0,100,0.06,,,0.89,Rainwise IP-100,2013-09-02 16:26:00,
2013-09-02 12:31:00,61.7,61.0,29.97,ESE,112,5.4,8.0,100,0.06,,,0.89,Rainwise IP-100,2013-09-02 16:31:00,
2013-09-02 12:36:00,61.6,61.0,29.97,ESE,112,4.0,9.0,100,0.00,,,0.89,Rainwise IP-100,2013-09-02 16:36:00,
2013-09-02 12:41:00,61.6,61.0,29.97,ESE,112,9.8,9.8,100,0.00,,,0.89,Rainwise IP-100,2013-09-02 16:41:00,
2013-09-02 12:46:00,61.6,61.0,29.97,ENE,67,5.1,9.0,100,0.00,,,0.89,Rainwise IP-100,2013-09-02 16:46:00,
2013-09-02 12:51:00,61.7,61.0,29.98,ESE,112,5.1,7.0,100,0.00,,,0.89,Rainwise IP-100,2013-09-02 16:51:00,
2013-09-02 12:56:00,61.7,61.0,29.97,ENE,67,4.0,8.0,100,0.00,,,0.89,Rainwise IP-100,2013-09-02 16:56:00,
2013-09-02 13:01:00,61.7,61.0,29.97,ESE,112,3.5,9.0,100,0.00,,,0.89,Rainwise IP-100,2013-09-02 17:01:00,
2013-09-02 13:06:00,61.7,61.0,29.97,ESE,112,1.6,7.0,100,0.00,,,0.89,Rainwise IP-100,2013-09-02 17:06:00,
2013-09-02 13:11:00,61.7,61.0,29.97,ESE,112,2.1,8.0,100,0.06,,,0.90,Rainwise IP-100,2013-09-02 17:11:00,
2013-09-02 13:16:00,61.7,61.0,29.97,ESE,112,4.2,8.0,100,0.66,,,1.04,Rainwise IP-100,2013-09-02 17:16:00,
2013-09-02 13:21:00,61.6,61.0,29.97,SE,135,2.3,9.0,100,1.20,,,1.10,Rainwise IP-100,2013-09-02 17:21:00,
2013-09-02 13:26:00,61.6,61.0,29.97,ESE,112,3.5,7.0,100,0.72,,,1.12,Rainwise IP-100,2013-09-02 17:26:00,
2013-09-02 13:31:00,61.7,61.0,29.96,ESE,112,4.7,5.0,100,0.36,,,1.16,Rainwise IP-100,2013-09-02 17:31:00,
2013-09-02 13:36:00,61.6,61.0,29.96,ESE,112,5.4,7.0,100,0.60,,,1.22,Rainwise IP-100,2013-09-02 17:36:00,
2013-09-02 13:41:00,61.6,61.0,29.95,ESE,112,3.7,10.0,100,0.54,,,1.27,Rainwise IP-100,2013-09-02 17:41:00,
2013-09-02 13:46:00,61.7,61.0,29.95,SSE,157,3.5,7.0,100,0.66,,,1.34,Rainwise IP-100,2013-09-02 17:46:00,
2013-09-02 13:51:00,61.7,61.0,29.94,SE,135,7.9,10.0,100,0.72,,,1.39,Rainwise IP-100,2013-09-02 17:51:00,
2013-09-02 13:56:00,61.8,61.0,29.94,ESE,112,2.8,10.0,100,0.72,,,1.46,Rainwise IP-100,2013-09-02 17:56:00,
2013-09-02 14:01:00,62.1,62.0,29.94,SSE,157,1.9,9.0,100,0.60,,,1.47,Rainwise IP-100,2013-09-02 18:01:00,
2013-09-02 14:06:00,62.3,62.0,29.94,ESE,112,4.2,7.0,100,0.12,,,1.47,Rainwise IP-100,2013-09-02 18:06:00,
2013-09-02 14:11:00,62.4,62.0,29.94,ESE,112,5.1,12.0,100,0.06,,,1.48,Rainwise IP-100,2013-09-02 18:11:00,
2013-09-02 14:16:00,62.3,62.0,29.94,SSE,157,1.4,13.0,100,0.06,,,1.48,Rainwise IP-100,2013-09-02 18:16:00,
2013-09-02 14:21:00,62.2,62.0,29.94,ENE,67,3.0,10.0,100,0.00,,,1.48,Rainwise IP-100,2013-09-02 18:21:00,
2013-09-02 14:26:00,62.2,62.0,29.94,ESE,112,6.1,10.0,100,0.06,,,1.49,Rainwise IP-100,2013-09-02 18:26:00,
2013-09-02 14:31:00,62.2,62.0,29.94,ESE,112,11.9,11.9,100,0.06,,,1.49,Rainwise IP-100,2013-09-02 18:31:00,
2013-09-02 14:36:00,62.2,62.0,29.94,East,90,7.2,11.0,100,0.00,,,1.50,Rainwise IP-100,2013-09-02 18:36:00,
2013-09-02 14:41:00,62.2,62.0,29.94,ENE,67,6.1,14.0,100,0.06,,,1.50,Rainwise IP-100,2013-09-02 18:41:00,
2013-09-02 14:46:00,62.3,62.0,29.94,SSE,157,4.4,8.0,100,0.06,,,1.50,Rainwise IP-100,2013-09-02 18:46:00,
2013-09-02 14:51:00,62.3,62.0,29.93,ESE,112,4.4,9.0,100,0.00,,,1.51,Rainwise IP-100,2013-09-02 18:51:00,
2013-09-02 14:56:00,62.2,62.0,29.93,ESE,112,3.0,9.0,100,0.06,,,1.51,Rainwise IP-100,2013-09-02 18:56:00,
2013-09-02 15:01:00,62.1,62.0,29.93,SE,135,3.5,9.0,100,0.06,,,1.51,Rainwise IP-100,2013-09-02 19:01:00,
2013-09-02 15:06:00,62.1,62.0,29.93,SSE,157,0.0,9.0,100,0.00,,,1.51,Rainwise IP-100,2013-09-02 19:06:00,
2013-09-02 15:11:00,62.1,62.0,29.93,SE,135,0.0,7.0,100,0.00,,,1.51,Rainwise IP-100,2013-09-02 19:11:00,
2013-09-02 15:16:00,62.1,62.0,29.93,ESE,112,1.9,6.0,100,0.00,,,1.51,Rainwise IP-100,2013-09-02 19:16:00,
2013-09-02 15:21:00,62.1,62.0,29.93,ESE,112,3.7,8.0,100,0.06,,,1.52,Rainwise IP-100,2013-09-02 19:21:00,
2013-09-02 15:26:00,62.1,62.0,29.92,ESE,112,1.6,8.0,100,0.06,,,1.52,Rainwise IP-100,2013-09-02 19:26:00,
2013-09-02 15:31:00,62.3,62.0,29.92,East,90,2.8,4.0,100,0.00,,,1.52,Rainwise IP-100,2013-09-02 19:31:00,
2013-09-02 15:36:00,62.4,62.0,29.92,ESE,112,2.6,8.0,100,0.00,,,1.52,Rainwise IP-100,2013-09-02 19:36:00,
2013-09-02 15:41:00,62.3,62.0,29.92,ESE,112,2.8,8.0,100,0.00,,,1.52,Rainwise IP-100,2013-09-02 19:41:00,
2013-09-02 15:46:00,62.3,62.0,29.92,ESE,112,2.3,7.0,100,0.00,,,1.52,Rainwise IP-100,2013-09-02 19:46:00,
2013-09-02 15:51:00,62.3,62.0,29.92,East,90,4.0,6.0,100,0.00,,,1.52,Rainwise IP-100,2013-09-02 19:51:00,
2013-09-02 15:56:00,62.3,62.0,29.92,SE,135,6.3,11.0,100,0.00,,,1.52,Rainwise IP-100,2013-09-02 19:56:00,
2013-09-02 16:01:00,62.3,62.0,29.92,ESE,112,2.8,9.0,100,0.00,,,1.52,Rainwise IP-100,2013-09-02 20:01:00,
2013-09-02 16:06:00,62.3,62.0,29.91,ESE,112,4.9,10.0,100,0.00,,,1.52,Rainwise IP-100,2013-09-02 20:06:00,
2013-09-02 16:11:00,62.2,62.0,29.92,ESE,112,3.3,10.0,100,0.00,,,1.52,Rainwise IP-100,2013-09-02 20:11:00,
2013-09-02 16:16:00,62.2,62.0,29.91,ESE,112,3.0,11.0,100,0.00,,,1.52,Rainwise IP-100,2013-09-02 20:16:00,
2013-09-02 16:21:00,62.2,62.0,29.92,ESE,112,4.9,8.0,100,0.00,,,1.52,Rainwise IP-100,2013-09-02 20:21:00,
2013-09-02 16:26:00,62.2,62.0,29.91,SE,135,5.8,7.0,100,0.00,,,1.52,Rainwise IP-100,2013-09-02 20:26:00,
2013-09-02 16:31:00,62.1,62.0,29.91,SE,135,6.1,11.0,100,0.00,,,1.52,Rainwise IP-100,2013-09-02 20:31:00,
2013-09-02 16:36:00,62.1,62.0,29.91,SSE,157,4.9,10.0,100,0.00,,,1.52,Rainwise IP-100,2013-09-02 20:36:00,
2013-09-02 16:41:00,62.1,62.0,29.91,ENE,67,5.1,7.0,100,0.00,,,1.52,Rainwise IP-100,2013-09-02 20:41:00,
2013-09-02 16:46:00,62.1,62.0,29.91,ESE,112,2.3,5.0,100,0.00,,,1.52,Rainwise IP-100,2013-09-02 20:46:00,
2013-09-02 16:51:00,61.9,62.0,29.91,East,90,3.7,7.0,100,0.06,,,1.53,Rainwise IP-100,2013-09-02 20:51:00,
2013-09-02 16:56:00,61.8,61.0,29.91,ESE,112,2.8,7.0,100,0.06,,,1.53,Rainwise IP-100,2013-09-02 20:56:00,
2013-09-02 17:01:00,61.8,61.0,29.91,ESE,112,4.0,10.0,100,0.00,,,1.53,Rainwise IP-100,2013-09-02 21:01:00,
2013-09-02 17:06:00,61.7,61.0,29.90,ESE,112,7.0,9.0,100,0.00,,,1.53,Rainwise IP-100,2013-09-02 21:06:00,
2013-09-02 17:11:00,61.6,61.0,29.90,ESE,112,4.9,9.0,100,0.00,,,1.53,Rainwise IP-100,2013-09-02 21:11:00,
2013-09-02 17:16:00,61.6,61.0,29.90,SE,135,3.3,6.0,100,0.00,,,1.53,Rainwise IP-100,2013-09-02 21:16:00,
2013-09-02 17:21:00,61.5,61.0,29.91,ESE,112,4.7,8.0,100,0.00,,,1.53,Rainwise IP-100,2013-09-02 21:21:00,
2013-09-02 17:26:00,61.5,61.0,29.91,ESE,112,4.9,8.0,100,0.00,,,1.53,Rainwise IP-100,2013-09-02 21:26:00,
2013-09-02 17:31:00,61.4,61.0,29.90,ESE,112,2.8,8.0,100,0.00,,,1.53,Rainwise IP-100,2013-09-02 21:31:00,
2013-09-02 17:36:00,61.4,61.0,29.91,ESE,112,2.8,7.0,100,0.00,,,1.53,Rainwise IP-100,2013-09-02 21:36:00,
2013-09-02 17:41:00,61.4,61.0,29.90,ESE,112,3.3,8.0,100,0.00,,,1.53,Rainwise IP-100,2013-09-02 21:41:00,
2013-09-02 17:46:00,61.4,61.0,29.90,SE,135,5.6,6.0,100,0.00,,,1.53,Rainwise IP-100,2013-09-02 21:46:00,
2013-09-02 17:51:00,61.4,61.0,29.90,East,90,7.0,8.0,100,0.00,,,1.53,Rainwise IP-100,2013-09-02 21:51:00,
2013-09-02 17:56:00,61.3,61.0,29.89,ESE,112,3.5,7.0,100,0.00,,,1.53,Rainwise IP-100,2013-09-02 21:56:00,
2013-09-02 18:01:00,61.3,61.0,29.90,ESE,112,2.8,7.0,100,0.00,,,1.53,Rainwise IP-100,2013-09-02 22:01:00,
2013-09-02 18:06:00,61.3,61.0,29.89,ESE,112,1.9,6.0,100,0.00,,,1.53,Rainwise IP-100,2013-09-02 22:06:00,
2013-09-02 18:11:00,61.4,61.0,29.89,ESE,112,4.2,5.0,100,0.00,,,1.53,Rainwise IP-100,2013-09-02 22:11:00,
2013-09-02 18:16:00,61.3,61.0,29.89,East,90,2.6,6.0,100,0.00,,,1.53,Rainwise IP-100,2013-09-02 22:16:00,
2013-09-02 18:21:00,61.3,61.0,29.89,East,90,3.7,6.0,100,0.06,,,1.54,Rainwise IP-100,2013-09-02 22:21:00,
2013-09-02 18:26:00,61.3,61.0,29.89,ESE,112,4.2,5.0,100,0.12,,,1.55,Rainwise IP-100,2013-09-02 22:26:00,
2013-09-02 18:31:00,61.3,61.0,29.88,ESE,112,2.1,4.0,100,0.06,,,1.56,Rainwise IP-100,2013-09-02 22:31:00,
2013-09-02 18:36:00,61.3,61.0,29.88,ESE,112,1.9,4.0,100,0.06,,,1.56,Rainwise IP-100,2013-09-02 22:36:00,
2013-09-02 18:41:00,61.3,61.0,29.89,East,90,2.6,6.0,100,0.12,,,1.57,Rainwise IP-100,2013-09-02 22:41:00,
2013-09-02 18:46:00,61.3,61.0,29.88,ESE,112,1.6,4.0,100,0.12,,,1.58,Rainwise IP-100,2013-09-02 22:46:00,
2013-09-02 18:51:00,61.3,61.0,29.88,SSE,157,2.3,5.0,100,0.12,,,1.59,Rainwise IP-100,2013-09-02 22:51:00,
2013-09-02 18:56:00,61.3,61.0,29.88,ESE,112,0.0,4.0,100,0.06,,,1.59,Rainwise IP-100,2013-09-02 22:56:00,
2013-09-02 19:01:00,61.3,61.0,29.88,ESE,112,2.1,2.1,100,0.00,,,1.59,Rainwise IP-100,2013-09-02 23:01:00,
2013-09-02 19:06:00,61.4,61.0,29.88,ESE,112,2.8,4.0,100,0.00,,,1.59,Rainwise IP-100,2013-09-02 23:06:00,
2013-09-02 19:11:00,61.4,61.0,29.88,SSE,157,2.8,3.0,100,0.00,,,1.59,Rainwise IP-100,2013-09-02 23:11:00,
2013-09-02 19:16:00,61.4,61.0,29.88,ESE,112,2.1,5.0,100,0.00,,,1.59,Rainwise IP-100,2013-09-02 23:16:00,
2013-09-02 19:21:00,61.4,61.0,29.89,East,90,1.6,4.0,100,0.00,,,1.59,Rainwise IP-100,2013-09-02 23:21:00,
2013-09-02 19:26:00,61.4,61.0,29.88,ESE,112,3.7,7.0,100,0.00,,,1.59,Rainwise IP-100,2013-09-02 23:26:00,
2013-09-02 19:31:00,61.4,61.0,29.88,ESE,112,2.1,7.0,100,0.00,,,1.59,Rainwise IP-100,2013-09-02 23:31:00,
2013-09-02 19:36:00,61.4,61.0,29.88,ESE,112,2.6,6.0,100,0.00,,,1.59,Rainwise IP-100,2013-09-02 23:36:00,
2013-09-02 19:41:00,61.4,61.0,29.88,ESE,112,2.6,5.0,100,0.00,,,1.59,Rainwise IP-100,2013-09-02 23:41:00,
2013-09-02 19:46:00,61.4,61.0,29.88,ESE,112,2.8,4.0,100,0.00,,,1.59,Rainwise IP-100,2013-09-02 23:46:00,
2013-09-02 19:51:00,61.4,61.0,29.88,ESE,112,2.6,5.0,100,0.06,,,1.60,Rainwise IP-100,2013-09-02 23:51:00,
2013-09-02 19:56:00,61.4,61.0,29.88,East,90,1.4,5.0,100,0.06,,,1.60,Rainwise IP-100,2013-09-02 23:56:00,
2013-09-02 20:01:00,61.4,61.0,29.88,ESE,112,2.3,3.0,100,0.12,,,1.62,Rainwise IP-100,2013-09-03 00:01:00,
2013-09-02 20:06:00,61.4,61.0,29.87,SE,135,2.8,5.0,100,0.24,,,1.65,Rainwise IP-100,2013-09-03 00:06:00,
2013-09-02 20:11:00,61.4,61.0,29.88,ESE,112,1.4,5.0,100,0.30,,,1.67,Rainwise IP-100,2013-09-03 00:11:00,
2013-09-02 20:16:00,61.5,61.0,29.87,ESE,112,3.5,4.0,100,0.30,,,1.69,Rainwise IP-100,2013-09-03 00:16:00,
2013-09-02 20:21:00,61.5,61.0,29.88,East,90,3.0,5.0,100,0.24,,,1.71,Rainwise IP-100,2013-09-03 00:21:00,
2013-09-02 20:26:00,61.5,61.0,29.88,ESE,112,2.8,5.0,100,0.18,,,1.73,Rainwise IP-100,2013-09-03 00:26:00,
2013-09-02 20:31:00,61.5,61.0,29.88,ESE,112,1.4,7.0,100,0.18,,,1.74,Rainwise IP-100,2013-09-03 00:31:00,
2013-09-02 20:36:00,61.5,61.0,29.87,SSE,157,1.4,6.0,100,0.18,,,1.75,Rainwise IP-100,2013-09-03 00:36:00,
2013-09-02 20:41:00,61.5,61.0,29.87,ESE,112,2.6,7.0,100,0.12,,,1.76,Rainwise IP-100,2013-09-03 00:41:00,
2013-09-02 20:46:00,61.5,61.0,29.87,ESE,112,3.7,6.0,100,0.12,,,1.77,Rainwise IP-100,2013-09-03 00:46:00,
2013-09-02 20:51:00,61.6,61.0,29.87,ESE,112,1.9,6.0,100,0.12,,,1.78,Rainwise IP-100,2013-09-03 00:51:00,
2013-09-02 20:56:00,61.6,61.0,29.87,ESE,112,1.6,7.0,100,0.12,,,1.79,Rainwise IP-100,2013-09-03 00:56:00,
2013-09-02 21:01:00,61.6,61.0,29.86,ENE,67,2.1,5.0,100,0.12,,,1.80,Rainwise IP-100,2013-09-03 01:01:00,
2013-09-02 21:06:00,61.7,61.0,29.86,ESE,112,0.0,3.0,100,0.12,,,1.81,Rainwise IP-100,2013-09-03 01:06:00,
2013-09-02 21:11:00,61.7,61.0,29.85,SW,225,0.0,4.0,100,0.06,,,1.82,Rainwise IP-100,2013-09-03 01:11:00,
2013-09-02 21:16:00,61.7,61.0,29.85,ESE,112,4.9,4.9,100,0.06,,,1.82,Rainwise IP-100,2013-09-03 01:16:00,
2013-09-02 21:21:00,61.7,61.0,29.86,ESE,112,0.0,4.0,100,0.06,,,1.82,Rainwise IP-100,2013-09-03 01:21:00,
2013-09-02 21:26:00,61.7,61.0,29.86,ESE,112,2.6,4.0,100,0.06,,,1.83,Rainwise IP-100,2013-09-03 01:26:00,
2013-09-02 21:31:00,61.7,61.0,29.86,ESE,112,1.6,4.0,100,0.06,,,1.83,Rainwise IP-100,2013-09-03 01:31:00,
2013-09-02 21:36:00,61.7,61.0,29.86,SSE,157,0.0,4.0,100,0.06,,,1.84,Rainwise IP-100,2013-09-03 01:36:00,
2013-09-02 21:41:00,61.8,61.0,29.85,ESE,112,1.9,5.0,100,0.12,,,1.86,Rainwise IP-100,2013-09-03 01:41:00,
2013-09-02 21:46:00,61.8,61.0,29.86,SE,135,0.0,2.0,100,0.12,,,1.87,Rainwise IP-100,2013-09-03 01:46:00,
2013-09-02 21:51:00,61.8,61.0,29.86,SE,135,0.0,0.0,100,0.18,,,1.88,Rainwise IP-100,2013-09-03 01:51:00,
2013-09-02 21:56:00,61.9,62.0,29.85,ESE,112,2.8,4.0,100,0.18,,,1.89,Rainwise IP-100,2013-09-03 01:56:00,
2013-09-02 22:01:00,61.9,62.0,29.85,East,90,3.0,7.0,100,0.12,,,1.90,Rainwise IP-100,2013-09-03 02:01:00,
2013-09-02 22:06:00,61.9,62.0,29.85,ESE,112,4.7,7.0,100,0.06,,,1.91,Rainwise IP-100,2013-09-03 02:06:00,
2013-09-02 22:11:00,61.9,62.0,29.84,ESE,112,1.9,6.0,100,0.06,,,1.91,Rainwise IP-100,2013-09-03 02:11:00,
2013-09-02 22:16:00,61.9,62.0,29.84,ESE,112,1.4,6.0,100,0.12,,,1.93,Rainwise IP-100,2013-09-03 02:16:00,
2013-09-02 22:21:00,62.0,62.0,29.84,ESE,112,0.0,4.0,100,0.12,,,1.93,Rainwise IP-100,2013-09-03 02:21:00,
2013-09-02 22:26:00,62.0,62.0,29.84,ESE,112,3.0,4.0,100,0.06,,,1.93,Rainwise IP-100,2013-09-03 02:26:00,
2013-09-02 22:31:00,62.0,62.0,29.84,ESE,112,3.0,6.0,100,0.06,,,1.94,Rainwise IP-100,2013-09-03 02:31:00,
2013-09-02 22:36:00,62.0,62.0,29.84,ESE,112,0.0,4.0,100,0.12,,,1.95,Rainwise IP-100,2013-09-03 02:36:00,
2013-09-02 22:41:00,62.0,62.0,29.85,ESE,112,2.1,4.0,100,0.18,,,1.97,Rainwise IP-100,2013-09-03 02:41:00,
2013-09-02 22:46:00,62.1,62.0,29.84,ESE,112,2.1,4.0,100,0.24,,,1.99,Rainwise IP-100,2013-09-03 02:46:00,
2013-09-02 22:51:00,62.1,62.0,29.83,ESE,112,2.1,5.0,100,0.18,,,2.00,Rainwise IP-100,2013-09-03 02:51:00,
2013-09-02 22:56:00,62.1,62.0,29.83,ESE,112,0.0,3.0,100,0.18,,,2.02,Rainwise IP-100,2013-09-03 02:56:00,
2013-09-02 23:01:00,62.2,62.0,29.83,ESE,112,2.1,2.1,100,0.42,,,2.07,Rainwise IP-100,2013-09-03 03:01:00,
2013-09-02 23:06:00,62.2,62.0,29.83,ENE,67,1.6,4.0,100,0.36,,,2.08,Rainwise IP-100,2013-09-03 03:06:00,
2013-09-02 23:11:00,62.2,62.0,29.82,East,90,1.4,3.0,100,0.12,,,2.09,Rainwise IP-100,2013-09-03 03:11:00,
2013-09-02 23:16:00,62.3,62.0,29.82,ESE,112,3.5,5.0,100,0.12,,,2.10,Rainwise IP-100,2013-09-03 03:16:00,
2013-09-02 23:21:00,62.5,62.0,29.82,ESE,112,0.0,4.0,100,0.06,,,2.10,Rainwise IP-100,2013-09-03 03:21:00,
2013-09-02 23:26:00,62.6,62.0,29.83,ESE,112,0.0,4.0,100,0.12,,,2.12,Rainwise IP-100,2013-09-03 03:26:00,
2013-09-02 23:31:00,62.6,62.0,29.83,ESE,112,2.6,4.0,100,0.30,,,2.16,Rainwise IP-100,2013-09-03 03:31:00,
2013-09-02 23:36:00,62.7,62.0,29.82,ESE,112,0.0,4.0,100,0.48,,,2.20,Rainwise IP-100,2013-09-03 03:36:00,
2013-09-02 23:41:00,62.8,62.0,29.82,ESE,112,1.2,3.0,100,0.30,,,2.20,Rainwise IP-100,2013-09-03 03:41:00,
2013-09-02 23:46:00,62.9,63.0,29.82,ESE,112,1.2,4.0,100,0.24,,,2.24,Rainwise IP-100,2013-09-03 03:46:00,
2013-09-02 23:51:00,62.9,63.0,29.82,ESE,112,2.6,4.0,100,0.24,,,2.24,Rainwise IP-100,2013-09-03 03:51:00,
2013-09-02 23:56:00,63.0,63.0,29.82,ESE,112,1.9,4.0,100,0.06,,,2.25,Rainwise IP-100,2013-09-03 03:56:00,